Location: Gisborne
(38.6530°S, 178.0040°E)
Time: 10:08:19
(UTC+13:00)

Lacrosse 5 - Pass Details

Date: 24 January 2019
Orbit: 713 x 725 km, 57.0° (Epoch: 11 February)

Event Time Altitude Azimuth Distance (km) Brightness Sun altitude
Rises 22:53:24 0° 241° (WSW) 3,158 6.3 -22.7°
Reaches altitude 10° 22:56:42 10° 262° (W) 2,226 5.0 -23.1°
Maximum altitude 22:59:39 16° 297° (WNW) 1,860 4.1 -23.4°
Enters shadow 23:01:12 14° 318° (NW) 1,959 4.0 -23.6°
